1491912000.37,41261,16.56,73288.8,8.59,-18.69,-16.59,0,*74
1491912001.64,41262,16.56,73286.5,8.59,-19.27,-17.35,0,*77
1491912002.92,41263,16.56,73284.5,8.63,-20.79,-18.93,0,*7D
1491912004.17,41264,16.56,73288.3,8.57,-21.67,-19.65,0,*7B
1491912005.4,41265,16.56,73290.3,8.57,-20.25,-18.31,0,*7D
1491912006.65,41266,16.56,73292.5,8.57,-21.33,-20.15,0,*75
1491912007.9,41267,16.56,73290.3,8.55,-23.53,-21.63,0,*72
1491912009.18,41268,16.56,73294.0,8.51,-24.11,-22.17,0,*78
1491912010.4,41269,16.63,73296.5,8.49,-21.03,-18.83,0,*72
1491912011.63,41270,16.56,73292.8,8.49,-20.05,-17.97,0,*77
1491912012.9,41271,16.56,73292.5,8.47,-19.37,-17.07,0,*7A
1491912014.12,41272,16.56,73294.3,8.49,-19.47,-17.25,0,*70
1491912015.36,41273,16.56,73290.8,8.51,-20.05,-17.93,0,*79
1491912016.57,41274,16.56,73292.8,8.49,-19.71,-17.49,0,*79
1491912017.85,41275,16.56,73294.3,8.51,-19.27,-17.17,0,*79
1491912019.05,41276,16.56,73290.0,8.49,-20.69,-18.69,0,*75
1491912020.28,41277,16.56,73292.3,8.49,-22.21,-20.09,0,*77
1491912021.51,41278,16.56,73290.8,8.45,-23.85,-21.77,0,*73
1491912022.75,41279,16.63,73298.0,8.41,-24.51,-22.57,0,*79
1491912023.94,41280,16.56,73298.8,8.39,-24.51,-22.41,0,*77
1491912025.14,41281,16.56,73292.8,8.31,-24.77,-22.67,0,*7E
1491912026.37,41282,16.56,73294.5,8.29,-23.39,-21.17,0,*7D
1491912027.59,41283,16.63,73298.3,8.25,-22.63,-20.43,0,*7E
1491912028.79,41284,16.56,73296.0,8.23,-21.39,-19.37,0,*7A
1491912030.04,41285,16.56,73294.3,8.21,-22.63,-20.49,0,*76
1491912031.29,41286,16.63,73296.5,8.21,-23.13,-21.03,0,*7C
1491912032.49,41287,16.56,73296.3,8.19,-23.79,-21.63,0,*7C
1491912033.73,41288,16.56,73292.8,8.15,-24.15,-21.97,0,*79
1491912034.98,41289,16.56,73292.3,8.11,-23.49,-21.43,0,*7B
1491912036.24,41290,16.56,73296.5,8.09,-23.65,-21.67,0,*72
1491912037.48,41291,16.56,73294.0,8.07,-23.85,-21.73,0,*76
1491912038.73,41292,16.56,73294.0,8.03,-23.23,-21.17,0,*7F
1491912039.94,41293,16.56,73296.8,8.01,-22.83,-20.63,0,*75
1491912041.16,41294,16.63,73300.8,7.99,-22.83,-20.69,0,*76
1491912042.41,41295,16.56,73296.5,7.95,-22.73,-20.69,0,*74
1491912043.65,41296,16.56,73300.3,7.95,-22.27,-20.25,0,*7E
1491912044.88,41297,16.63,73300.8,7.93,-22.27,-20.19,0,*76
1491912046.13,41298,16.56,73300.3,7.89,-21.83,-19.85,0,*70
1491912047.34,41299,16.56,73296.3,7.89,-23.59,-21.63,0,*77
1491912048.57,41300,16.63,73300.3,7.85,-24.83,-22.87,0,*73
1491912049.8,41301,16.63,73300.8,7.81,-25.19,-23.19,0,*72
1491912051.0,41302,16.56,73298.3,7.79,-23.79,-21.77,0,*7C
1491912052.28,41303,16.56,73298.5,7.77,-23.19,-20.99,0,*74
1491912053.5,41304,16.56,73296.5,7.75,-22.87,-20.83,0,*7C
1491912054.73,41305,16.63,73292.5,7.75,-22.37,-20.49,0,*70
1491912055.96,41306,16.56,73290.8,7.71,-20.83,-18.65,0,*7F
1491912057.21,41307,16.56,73286.3,7.73,-19.61,-17.35,0,*70
1491912058.46,41308,16.56,73286.3,7.75,-20.35,-18.31,0,*79
1491912059.7,41309,16.56,73282.0,7.75,-20.15,-18.01,0,*79
1491912060.96,41310,16.56,73282.0,7.77,-19.71,-17.55,0,*75
1491912062.19,41311,16.63,73284.8,7.77,-18.73,-16.55,0,*76
1491912063.39,41312,16.56,73284.5,7.79,-18.17,-15.95,0,*76
1491912064.6,41313,16.56,73286.0,7.81,-18.83,-16.75,0,*70
1491912065.83,41314,16.56,73290.0,7.83,-18.83,-16.83,0,*7C
1491912067.08,41315,16.56,73290.5,7.83,-19.03,-17.03,0,*7D
1491912068.31,41316,16.56,73288.3,7.87,-19.51,-17.31,0,*7C
1491912069.58,41317,16.63,73290.8,7.87,-19.13,-17.03,0,*7A
1491912070.83,41318,16.56,73290.0,7.87,-18.45,-16.27,0,*70
1491912072.04,41319,16.63,73290.5,7.93,-18.73,-16.75,0,*76
1491912073.3,41320,16.63,73290.5,7.93,-19.65,-17.59,0,*75
1491912074.54,41321,16.56,73290.0,7.89,-18.93,-16.79,0,*74
1491912075.75,41322,16.56,73288.8,7.93,-18.73,-16.75,0,*7E
1491912077.05,41323,16.56,73288.3,7.95,-19.27,-17.07,0,*7D
1491912078.31,41324,16.56,73288.8,7.97,-19.23,-17.03,0,*78
1491912079.52,41325,16.63,73294.8,7.97,-19.07,-16.75,0,*7F
1491912080.72,41326,16.63,73294.0,7.97,-18.79,-16.55,0,*76
1491912081.95,41327,16.63,73292.8,8.01,-18.25,-15.89,0,*7C
1491912083.17,41328,16.56,73294.5,8.01,-18.59,-16.37,0,*7E
1491912084.4,41329,16.56,73294.5,8.03,-18.41,-16.03,0,*73
1491912085.66,41330,16.63,73292.8,8.03,-18.59,-16.55,0,*71
1491912086.89,41331,16.63,73296.8,8.05,-19.27,-16.93,0,*74
1491912088.09,41332,16.63,73296.3,8.05,-18.73,-16.55,0,*7D
1491912089.28,41333,16.56,73294.3,8.05,-18.25,-15.99,0,*7C
1491912090.51,41334,16.56,73292.8,8.07,-18.99,-16.59,0,*71
1491912091.76,41335,16.56,73294.5,8.11,-18.79,-16.51,0,*71
1491912093.01,41336,16.63,73298.8,8.07,-18.17,-15.81,0,*73
1491912094.24,41337,16.56,73292.3,8.09,-18.01,-15.53,0,*74
1491912095.52,41338,16.56,73294.5,8.11,-17.59,-15.21,0,*75
1491912096.74,41339,16.63,73298.5,8.15,-17.55,-15.15,0,*7B
1491912097.97,41340,16.63,73296.5,8.17,-17.35,-15.07,0,*72
1491912099.2,41341,16.56,73296.5,8.19,-17.35,-14.93,0,*71
1491912100.45,41342,16.63,73298.8,8.21,-17.31,-15.01,0,*77
1491912101.64,41343,16.63,73296.3,8.23,-18.11,-15.63,0,*7D
1491912102.86,41344,16.63,73298.5,8.23,-17.31,-15.01,0,*73
1491912104.11,41345,16.63,73296.8,8.25,-17.17,-14.69,0,*7F
1491912105.36,41346,16.56,73292.3,8.25,-17.79,-15.29,0,*71
1491912106.56,41347,16.63,73296.0,8.27,-17.35,-15.11,0,*71
1491912107.78,41348,16.56,73292.3,8.31,-16.69,-14.33,0,*70
1491912108.99,41349,16.56,73294.0,8.31,-17.87,-15.49,0,*7C
1491912110.27,41350,16.56,73294.5,8.33,-17.41,-15.01,0,*70
1491912111.47,41351,16.56,73298.8,8.35,-17.49,-15.15,0,*7A
1491912112.72,41352,16.63,73296.5,8.35,-17.97,-15.35,0,*78
1491912113.93,41353,16.63,73298.3,8.35,-17.35,-14.89,0,*77
1491912115.19,41354,16.56,73296.8,8.41,-18.35,-15.95,0,*70
1491912116.41,41355,16.63,73300.3,8.41,-17.49,-15.07,0,*7E
1491912117.67,41356,16.56,73298.5,8.41,-18.79,-16.31,0,*77
1491912118.88,41357,16.63,73298.5,8.39,-20.05,-17.63,0,*7F
1491912120.12,41358,16.63,73296.0,8.39,-20.53,-18.35,0,*7F
1491912121.34,41359,16.63,73298.0,8.39,-20.93,-18.55,0,*74
1491912122.62,41360,16.56,73298.0,8.33,-21.53,-19.23,0,*79
1491912123.83,41361,16.56,73292.5,8.29,-21.13,-18.79,0,*79
1491912125.09,41362,16.56,73292.0,8.29,-21.77,-19.31,0,*75
1491912126.34,41363,16.63,73298.8,8.25,-21.93,-19.61,0,*77
1491912127.59,41364,16.63,73300.0,8.23,-21.97,-19.57,0,*77
1491912128.86,41365,16.63,73302.3,8.21,-23.95,-21.53,0,*7B
1491912130.11,41366,16.63,73302.8,8.17,-23.13,-20.79,0,*7A
1491912131.39,41367,16.63,73302.5,8.11,-22.17,-19.85,0,*71
1491912132.62,41368,16.63,73302.5,8.09,-21.73,-19.23,0,*7A
1491912133.84,41369,16.56,73296.0,8.07,-21.73,-19.37,0,*70
1491912135.06,41370,16.56,73294.0,8.05,-21.33,-18.99,0,*7B
1491912136.3,41371,16.63,73296.3,8.05,-20.19,-17.63,0,*79
1491912137.56,41372,16.56,73294.8,8.03,-20.53,-18.11,0,*78
1491912138.76,41373,16.63,73294.8,8.05,-19.95,-17.35,0,*76
1491912139.99,41374,16.63,73294.8,8.03,-19.47,-16.89,0,*7E
1491912141.18,41375,16.63,73288.8,8.05,-20.09,-17.69,0,*76
1491912142.43,41376,16.63,73290.0,8.03,-20.39,-17.93,0,*75
1491912143.68,41377,16.63,73288.5,8.05,-19.41,-17.03,0,*7E
1491912144.94,41378,16.63,73286.0,8.03,-19.31,-16.79,0,*7C
1491912146.2,41379,16.56,73284.3,8.03,-19.31,-16.79,0,*7D
1491912147.4,41380,16.56,73286.3,8.05,-20.25,-17.83,0,*76
1491912148.66,41381,16.63,73284.0,8.03,-20.53,-18.11,0,*74
1491912149.88,41382,16.63,73286.8,8.03,-20.69,-18.25,0,*79
1491912151.11,41383,16.63,73286.3,8.03,-20.39,-17.69,0,*7A
1491912152.4,41384,16.63,73284.8,8.03,-19.61,-17.07,0,*72
1491912153.65,41385,16.63,73290.5,7.99,-19.71,-17.11,0,*79
1491912154.87,41386,16.63,73290.5,8.01,-20.43,-17.83,0,*74
1491912156.11,41387,16.56,73288.8,7.99,-20.79,-18.17,0,*70
1491912157.38,41388,16.63,73292.5,7.99,-20.49,-17.63,0,*70
1491912158.64,41389,16.63,73292.8,7.97,-19.61,-17.03,0,*79
1491912159.91,41390,16.63,73294.8,7.97,-19.57,-17.03,0,*74
1491912161.17,41391,16.63,73292.5,7.97,-19.27,-16.69,0,*7F
1491912162.37,41392,16.56,73290.8,7.97,-19.07,-16.37,0,*75
1491912163.63,41393,16.63,73292.0,7.99,-18.69,-16.09,0,*7E
1491912164.86,41394,16.63,73292.8,7.99,-18.21,-15.53,0,*79
1491912166.1,41395,16.63,73294.8,8.01,-17.87,-15.43,0,*74
1491912167.35,41396,16.63,73290.3,8.01,-18.59,-16.09,0,*76
1491912168.6,41397,16.63,73290.3,8.01,-17.55,-14.93,0,*75
1491912169.8,41398,16.63,73288.0,8.05,-17.49,-14.69,0,*76
1491912171.02,41399,16.63,73288.0,8.05,-17.03,-14.29,0,*7D
1491912172.22,41400,16.63,73286.0,8.09,-16.37,-13.73,0,*78
1491912173.47,41401,16.63,73286.0,8.11,-16.17,-13.43,0,*71
1491912174.72,41402,16.63,73286.3,8.11,-16.09,-13.43,0,*7D
1491912175.94,41403,16.63,73286.0,8.17,-17.31,-14.65,0,*73
1491912177.15,41404,16.56,73280.8,8.19,-16.89,-14.23,0,*7A
1491912178.37,41405,16.56,73280.5,8.19,-16.55,-13.79,0,*72
1491912179.62,41406,16.63,73284.8,8.23,-17.21,-14.79,0,*7D
1491912180.84,41407,16.63,73284.0,8.23,-17.07,-14.33,0,*76
1491912182.12,41408,16.63,73286.8,8.25,-16.13,-13.37,0,*78
1491912183.36,41409,16.63,73290.5,8.27,-16.13,-13.37,0,*7B
1491912184.6,41410,16.63,73286.5,8.29,-16.31,-13.47,0,*7A
1491912185.8,41411,16.63,73290.3,8.31,-15.63,-12.89,0,*75
1491912187.05,41412,16.63,73288.3,8.33,-15.63,-12.79,0,*7B
1491912188.25,41413,16.63,73288.3,8.39,-16.97,-14.23,0,*71
1491912189.44,41414,16.63,73288.5,8.39,-16.45,-13.65,0,*7C
1491912190.68,41415,16.63,73290.5,8.41,-16.31,-13.43,0,*75
1491912191.93,41416,16.63,73292.3,8.41,-17.03,-14.19,0,*7E
1491912193.19,41417,16.63,73290.5,8.47,-16.59,-13.83,0,*73
1491912194.45,41418,16.63,73294.3,8.45,-17.21,-14.47,0,*7F
1491912195.72,41419,16.63,73292.8,8.47,-17.55,-14.75,0,*7E
1491912196.95,41420,16.63,73294.8,8.49,-16.31,-13.51,0,*78
1491912198.2,41421,16.63,73294.3,8.51,-15.75,-12.79,0,*78
1491912199.46,41422,16.63,73296.5,8.51,-15.67,-12.79,0,*78
1491912200.66,41423,16.63,73292.5,8.53,-15.95,-13.07,0,*7E
1491912201.89,41424,16.63,73296.3,8.55,-16.31,-13.47,0,*76
1491912203.18,41425,16.63,73298.0,8.59,-17.45,-14.75,0,*7F
1491912204.42,41426,16.63,73292.8,8.57,-17.97,-15.29,0,*75
1491912205.67,41427,16.63,73296.3,8.57,-17.25,-14.55,0,*77
1491912206.89,41428,16.63,73298.3,8.57,-16.79,-13.87,0,*78
1491912208.15,41429,16.63,73298.8,8.59,-17.17,-14.37,0,*72
1491912209.4,41430,16.63,73294.8,8.59,-16.27,-13.43,0,*7C
1491912210.62,41431,16.63,73296.8,8.59,-16.45,-13.65,0,*7D
1491912211.88,41432,16.63,73296.3,8.63,-17.03,-14.23,0,*71
1491912213.11,41433,16.56,73290.0,8.65,-16.89,-14.05,0,*71
1491912214.34,41434,16.63,73292.0,8.65,-17.03,-14.23,0,*71
1491912215.54,41435,16.63,73294.5,8.65,-16.75,-13.93,0,*7C
1491912216.8,41436,16.63,73294.8,8.65,-17.59,-14.79,0,*73
1491912218.03,41437,16.63,73292.8,8.67,-17.73,-14.89,0,*77
1491912219.29,41438,16.63,73290.5,8.67,-17.35,-14.47,0,*78
1491912220.51,41439,16.63,73296.8,8.67,-16.97,-14.19,0,*7B
1491912221.72,41440,16.63,73292.3,8.69,-17.35,-14.61,0,*7D
1491912222.93,41441,16.63,73288.8,8.69,-18.79,-15.95,0,*71
1491912224.16,41442,16.63,73290.8,8.67,-18.79,-16.03,0,*70
1491912225.4,41443,16.63,73292.5,8.65,-17.55,-14.65,0,*70
1491912226.65,41444,16.63,73288.3,8.65,-16.27,-13.37,0,*73
1491912227.88,41445,16.63,73288.3,8.65,-17.03,-14.33,0,*76
1491912229.13,41446,16.63,73290.5,8.67,-17.55,-14.61,0,*73
1491912230.38,41447,16.63,73290.8,8.69,-17.55,-14.75,0,*79
1491912231.64,41448,16.63,73288.5,8.67,-17.41,-14.69,0,*70
1491912232.84,41449,16.63,73286.8,8.69,-17.49,-14.69,0,*77
1491912234.06,41450,16.63,73290.0,8.69,-17.35,-14.43,0,*7C
1491912235.31,41451,16.63,73288.5,8.67,-16.31,-13.47,0,*75
1491912236.54,41452,16.63,73288.5,8.69,-16.65,-13.73,0,*7E
1491912237.77,41453,16.63,73288.5,8.69,-17.41,-14.61,0,*7C
1491912238.99,41454,16.63,73290.0,8.73,-16.97,-14.05,0,*78
1491912240.25,41455,16.63,73290.8,8.71,-17.17,-14.37,0,*73
1491912241.52,41456,16.63,73290.0,8.71,-17.63,-14.83,0,*7C
1491912242.78,41457,16.63,73288.5,8.71,-17.97,-15.15,0,*78
1491912244.03,41458,16.63,73284.8,8.71,-19.13,-16.31,0,*70
1491912245.29,41459,16.63,73288.5,8.67,-19.51,-16.65,0,*71
1491912246.57,41460,16.63,73288.3,8.67,-19.23,-16.23,0,*7C
1491912247.82,41461,16.63,73294.0,8.65,-20.15,-17.25,0,*77
1491912249.08,41462,16.63,73290.0,8.63,-18.93,-15.95,0,*7E
1491912250.28,41463,16.63,73290.3,8.57,-20.25,-17.35,0,*76
1491912251.5,41464,16.63,73294.3,8.57,-20.29,-17.41,0,*7E
1491912252.72,41465,16.63,73292.5,8.57,-20.09,-17.25,0,*7F
1491912253.98,41466,16.63,73294.5,8.55,-18.79,-15.89,0,*76
1491912255.26,41467,16.63,73294.3,8.55,-17.97,-15.21,0,*7A
1491912256.47,41468,16.63,73292.5,8.53,-18.07,-15.25,0,*71
1491912257.72,41469,16.63,73298.3,8.55,-17.11,-14.19,0,*70
1491912258.95,41470,16.63,73298.5,8.53,-18.59,-15.53,0,*72
1491912260.19,41471,16.63,73296.5,8.53,-19.99,-17.11,0,*7A
1491912261.41,41472,16.63,73298.0,8.51,-19.99,-16.97,0,*74
1491912262.65,41473,16.63,73296.0,8.49,-19.31,-16.41,0,*75
1491912263.85,41474,16.63,73298.0,8.49,-18.79,-15.71,0,*7F
1491912265.11,41475,16.63,73298.5,8.47,-19.65,-16.79,0,*77
1491912266.34,41476,16.63,73296.5,8.47,-19.75,-16.79,0,*75
1491912267.58,41477,16.63,73300.3,8.45,-19.07,-16.09,0,*74
1491912268.84,41478,16.63,73302.5,8.45,-17.97,-15.01,0,*77
1491912270.1,41479,16.63,73300.8,8.45,-17.97,-14.97,0,*78
1491912271.33,41480,16.63,73298.8,8.45,-17.21,-14.15,0,*79
1491912272.56,41481,16.63,73302.3,8.45,-16.93,-13.97,0,*7D
1491912273.81,41482,16.63,73300.3,8.47,-17.11,-14.29,0,*75
1491912275.03,41483,16.63,73306.5,8.45,-18.17,-15.29,0,*7E
1491912276.31,41484,16.63,73302.0,8.47,-18.31,-15.35,0,*72
1491912277.57,41485,16.63,73302.5,8.45,-17.93,-14.97,0,*7F
1491912278.8,41486,16.63,73300.3,8.45,-17.63,-14.61,0,*7A
1491912280.05,41487,16.63,73298.5,8.45,-17.55,-14.55,0,*79
1491912281.34,41488,16.63,73294.5,8.47,-18.31,-15.35,0,*7E
1491912282.55,41489,16.63,73292.0,8.45,-18.73,-15.75,0,*7F
1491912283.78,41490,16.63,73294.0,8.45,-18.69,-15.85,0,*73
1491912285.02,41491,16.63,73290.3,8.47,-18.69,-15.75,0,*7F
1491912286.25,41492,16.63,73286.8,8.45,-16.65,-13.73,0,*7C
1491912287.48,41493,16.63,73288.3,8.45,-16.09,-13.15,0,*77
1491912288.74,41494,16.63,73288.0,8.47,-16.17,-13.15,0,*7D
1491912289.99,41495,16.63,73286.5,8.47,-17.21,-14.29,0,*70
1491912291.25,41496,16.63,73290.5,8.47,-18.41,-15.43,0,*77
1491912292.47,41497,16.63,73290.0,8.49,-16.75,-13.79,0,*7E
1491912293.72,41498,16.63,73290.8,8.47,-16.75,-13.83,0,*7A
1491912294.95,41499,16.63,73284.8,8.47,-16.37,-13.43,0,*71
1491912296.18,41500,16.63,73290.8,8.51,-16.55,-13.55,0,*74
1491912297.43,41501,16.63,73288.3,8.49,-17.21,-14.43,0,*7E
1491912298.66,41502,16.63,73290.0,8.51,-18.17,-15.25,0,*7F
1491912299.9,41503,16.63,73288.3,8.49,-18.69,-15.81,0,*70
1491912301.14,41504,16.63,73290.5,8.49,-17.63,-14.93,0,*70
1491912302.34,41505,16.63,73290.3,8.49,-18.65,-15.67,0,*72
1491912303.6,41506,16.63,73290.0,8.49,-17.93,-14.93,0,*7D
1491912304.85,41507,16.63,73292.0,8.47,-17.63,-14.61,0,*70
1491912306.09,41508,16.63,73292.3,8.47,-16.97,-13.87,0,*7A
1491912307.35,41509,16.63,73294.3,8.47,-16.65,-13.69,0,*76
1491912308.62,41510,16.63,73294.5,8.47,-17.63,-14.83,0,*7A
1491912309.89,41511,16.63,73290.3,8.49,-19.27,-16.31,0,*70
1491912311.14,41512,16.63,73288.0,8.47,-19.23,-16.37,0,*7F
1491912312.37,41513,16.63,73290.5,8.45,-18.59,-15.75,0,*75
1491912313.63,41514,16.63,73292.0,8.47,-19.03,-16.09,0,*76
1491912314.89,41515,16.63,73294.8,8.45,-17.97,-15.01,0,*7D
1491912316.12,41516,16.63,73290.8,8.39,-17.17,-14.23,0,*7C
1491912317.36,41517,16.63,73290.0,8.41,-18.55,-15.67,0,*7A
1491912318.62,41518,16.63,73292.0,8.41,-17.35,-14.51,0,*78
1491912319.85,41519,16.63,73294.5,8.45,-16.89,-13.97,0,*76
1491912321.06,41520,16.63,73298.3,8.45,-16.37,-13.55,0,*77
1491912322.28,41521,16.63,73298.8,8.45,-16.31,-13.43,0,*77
1491912323.54,41522,16.63,73298.0,8.47,-15.89,-12.89,0,*71
1491912324.79,41523,16.63,73296.0,8.49,-17.21,-14.83,0,*72
1491912326.0,41524,16.63,73296.3,8.49,-17.35,-14.65,0,*78
1491912327.2,41525,16.63,73294.3,8.49,-17.49,-14.69,0,*7E
1491912328.43,41526,16.63,73292.8,8.49,-17.73,-15.01,0,*7B
1491912329.65,41527,16.63,73296.0,8.49,-17.03,-14.11,0,*7D
1491912330.88,41528,16.63,73292.3,8.49,-16.89,-13.97,0,*78
1491912332.14,41529,16.63,73292.0,8.51,-16.13,-13.19,0,*75
1491912333.39,41530,16.63,73292.5,8.51,-15.89,-13.07,0,*72
1491912334.61,41531,16.63,73296.3,8.51,-16.79,-13.93,0,*72
1491912335.83,41532,16.63,73296.0,8.51,-16.79,-13.93,0,*71
1491912337.08,41533,16.63,73298.0,8.51,-17.03,-14.33,0,*71
1491912338.29,41534,16.63,73292.8,8.53,-18.49,-15.67,0,*75
1491912339.52,41535,16.63,73292.8,8.51,-18.17,-15.49,0,*71
1491912340.74,41536,16.63,73294.8,8.49,-17.03,-14.11,0,*7D
1491912342.0,41537,16.63,73294.0,8.51,-17.25,-14.65,0,*72
1491912343.2,41538,16.63,73292.8,8.49,-16.89,-14.11,0,*70
1491912344.42,41539,16.63,73296.5,8.51,-16.89,-14.33,0,*78
1491912345.65,41540,16.63,73300.5,8.51,-16.37,-13.51,0,*70
1491912346.92,41541,16.63,73302.8,8.51,-17.55,-14.97,0,*79
1491912348.15,41542,16.63,73302.3,8.51,-18.65,-15.99,0,*79
1491912349.35,41543,16.63,73298.8,8.53,-17.31,-14.65,0,*76
1491912350.61,41544,16.63,73298.0,8.51,-16.79,-14.05,0,*78
1491912351.86,41545,16.63,73300.3,8.51,-17.73,-14.97,0,*79
1491912353.09,41546,16.63,73298.0,8.51,-18.17,-15.53,0,*7E
1491912354.29,41547,16.63,73298.3,8.49,-16.89,-14.11,0,*78
1491912355.54,41548,16.63,73302.3,8.51,-16.69,-14.23,0,*71
1491912356.77,41549,16.63,73296.3,8.51,-18.21,-15.53,0,*74
1491912358.02,41550,16.63,73302.3,8.51,-16.69,-13.93,0,*74
1491912359.29,41551,16.63,73302.0,8.51,-16.23,-13.37,0,*75
1491912360.55,41552,16.63,73302.5,8.53,-16.13,-13.33,0,*73
1491912361.8,41553,16.63,73300.3,8.53,-15.81,-13.01,0,*7B
1491912363.03,41554,16.63,73302.3,8.55,-15.95,-13.19,0,*76
1491912364.27,41555,16.63,73298.0,8.57,-15.89,-13.01,0,*71
1491912365.5,41556,16.63,73298.3,8.57,-15.85,-13.11,0,*7F
1491912366.73,41557,16.63,73302.5,8.59,-15.71,-13.11,0,*7B
1491912367.98,41558,16.63,73302.3,8.59,-15.89,-13.11,0,*73
1491912369.24,41559,16.69,73302.8,8.63,-16.55,-13.61,0,*7E
1491912370.5,41560,16.63,73302.0,8.63,-17.45,-14.65,0,*77
1491912371.74,41561,16.63,73300.5,8.63,-19.13,-16.37,0,*7E
1491912373.0,41562,16.63,73298.5,8.57,-18.31,-15.57,0,*7E
1491912374.2,41563,16.63,73298.5,8.57,-18.73,-15.95,0,*77
1491912375.42,41564,16.63,73298.8,8.57,-20.09,-17.25,0,*7F
1491912376.65,41565,16.63,73298.3,8.53,-18.99,-16.27,0,*7B
1491912377.93,41566,16.63,73298.3,8.51,-18.59,-15.89,0,*71
1491912379.15,41567,16.63,73298.5,8.49,-20.05,-17.45,0,*79
1491912380.37,41568,16.63,73300.0,8.47,-20.29,-17.69,0,*78
1491912381.58,41569,16.63,73296.8,8.45,-19.51,-16.79,0,*7E
1491912382.79,41570,16.63,73296.3,8.39,-20.19,-17.73,0,*70
1491912384.02,41571,16.63,73292.5,8.35,-19.51,-17.03,0,*7C
1491912385.29,41572,16.63,73292.5,8.33,-18.89,-16.23,0,*7E
1491912386.54,41573,16.63,73292.3,8.33,-18.73,-16.27,0,*7E
1491912387.74,41574,16.63,73292.3,8.31,-18.21,-15.63,0,*7F
1491912388.96,41575,16.63,73294.8,8.31,-17.73,-15.21,0,*70
1491912390.15,41576,16.63,73294.8,8.31,-17.31,-14.89,0,*76
1491912391.37,41577,16.63,73292.3,8.31,-17.59,-15.15,0,*7D
1491912392.61,41578,16.63,73288.3,8.29,-19.17,-16.59,0,*74
1491912393.86,41579,16.63,73288.3,8.29,-18.83,-16.31,0,*77
1491912395.09,41580,16.63,73288.0,8.25,-19.37,-16.79,0,*7F
1491912396.31,41581,16.63,73286.5,8.27,-18.25,-15.85,0,*7E
1491912397.57,41582,16.63,73286.8,8.25,-17.21,-14.61,0,*7F
1491912398.76,41583,16.63,73286.0,8.27,-16.83,-14.33,0,*72
1491912399.98,41584,16.63,73286.5,8.27,-16.45,-13.83,0,*73
1491912401.17,41585,16.63,73288.3,8.27,-15.53,-13.07,0,*7A
1491912402.45,41586,16.63,73288.0,8.29,-16.27,-13.83,0,*7B
1491912403.67,41587,16.63,73292.0,8.29,-16.89,-14.37,0,*76
1491912404.9,41588,16.63,73292.3,8.29,-16.75,-14.37,0,*7A
1491912406.18,41589,16.63,73290.3,8.29,-18.35,-16.09,0,*7E
1491912407.43,41590,16.63,73288.8,8.29,-18.49,-16.13,0,*76
1491912408.66,41591,16.63,73292.8,8.29,-16.55,-14.19,0,*7C
1491912409.94,41592,16.63,73292.0,8.29,-17.21,-14.97,0,*7B
1491912411.19,41593,16.63,73294.0,8.29,-18.41,-16.23,0,*7E
1491912412.41,41594,16.63,73294.5,8.27,-18.49,-16.23,0,*7F
1491912413.66,41595,16.63,73294.0,8.25,-17.63,-15.25,0,*7E
1491912414.94,41596,16.63,73294.8,8.25,-17.07,-14.75,0,*7B
1491912416.19,41597,16.63,73292.0,8.25,-16.37,-14.01,0,*7B
1491912417.43,41598,16.63,73296.5,8.27,-16.27,-13.83,0,*7A
1491912418.68,41599,16.63,73296.8,8.27,-16.31,-13.97,0,*79
1491912419.95,41600,16.63,73302.5,8.29,-16.69,-14.55,0,*70
1491912421.2,41601,16.63,73300.8,8.25,-17.79,-15.67,0,*7D
1491912422.42,41602,16.63,73298.5,8.27,-18.07,-16.13,0,*7A
1491912423.65,41603,16.69,73298.0,8.25,-17.49,-15.29,0,*76
1491912424.91,41604,16.63,73292.8,8.25,-17.21,-15.11,0,*74
1491912426.15,41605,16.63,73290.8,8.25,-18.11,-15.89,0,*78
1491912427.42,41606,16.63,73288.0,8.25,-17.79,-15.57,0,*79
1491912428.7,41607,16.69,73290.3,8.21,-18.35,-16.23,0,*7B
1491912429.95,41608,16.69,73290.3,8.23,-17.59,-15.39,0,*7B
1491912431.2,41609,16.63,73288.8,8.21,-17.25,-15.15,0,*7D
1491912432.44,41610,16.63,73292.3,8.21,-16.03,-13.87,0,*7D
1491912433.64,41611,16.63,73292.3,8.23,-16.41,-14.19,0,*78
1491912434.87,41612,16.69,73296.3,8.23,-16.65,-14.61,0,*72
1491912436.14,41613,16.69,73292.8,8.21,-16.65,-14.43,0,*71
1491912437.39,41614,16.63,73292.0,8.21,-16.55,-14.47,0,*71
1491912438.62,41615,16.63,73292.0,8.21,-16.97,-14.89,0,*7C
1491912439.84,41616,16.69,73294.5,8.23,-17.25,-15.07,0,*72
1491912441.05,41617,16.63,73294.5,8.23,-16.03,-13.79,0,*79
1491912442.29,41618,16.63,73292.5,8.23,-15.81,-13.87,0,*7E
1491912443.48,41619,16.63,73290.5,8.23,-15.95,-13.73,0,*71
1491912444.7,41620,16.69,73292.0,8.23,-15.89,-13.73,0,*76
1491912445.92,41621,16.63,73290.8,8.25,-16.75,-14.69,0,*7D
1491912447.17,41622,16.63,73296.5,8.25,-16.75,-14.75,0,*73
1491912448.46,41623,16.69,73298.8,8.21,-17.97,-16.09,0,*72
1491912449.7,41624,16.63,73294.3,8.21,-18.49,-16.69,0,*7F
1491912450.93,41625,16.63,73292.5,8.21,-17.73,-15.75,0,*76
1491912452.17,41626,16.69,73296.5,8.19,-16.41,-14.47,0,*7E
1491912453.39,41627,16.69,73296.3,8.19,-16.23,-14.19,0,*70
1491912454.59,41628,16.69,73298.0,8.19,-16.55,-14.69,0,*79
1491912455.82,41629,16.69,73298.0,8.19,-16.89,-14.93,0,*7C
1491912457.05,41630,16.69,73286.5,8.19,-16.75,-14.83,0,*76
1491912458.31,41631,16.69,73288.3,8.19,-17.63,-15.81,0,*72
1491912459.56,41632,16.69,73288.8,8.17,-18.55,-16.75,0,*7D
1491912460.82,41633,16.63,73292.8,8.17,-18.41,-16.69,0,*74
1491912462.04,41634,16.63,73298.3,8.11,-18.49,-16.55,0,*72
1491912463.32,41635,16.63,73296.3,8.11,-17.25,-15.43,0,*72
1491912464.6,41636,16.69,73296.0,8.11,-16.51,-14.47,0,*76
1491912465.86,41637,16.69,73296.0,8.09,-16.65,-14.93,0,*70
1491912467.06,41638,16.69,73296.5,8.09,-16.83,-15.15,0,*78
1491912468.29,41639,16.63,73296.3,8.09,-16.93,-15.21,0,*7F
1491912469.56,41640,16.69,73298.8,8.07,-16.23,-14.47,0,*75
1491912470.79,41641,16.69,73298.5,8.07,-16.41,-14.61,0,*74
1491912472.02,41642,16.69,73298.8,8.09,-17.25,-15.75,0,*7E
1491912473.29,41643,16.69,73296.5,8.07,-17.79,-16.13,0,*7B
1491912474.52,41644,16.69,73298.0,8.09,-16.55,-14.79,0,*73
1491912475.77,41645,16.69,73298.5,8.09,-15.89,-14.01,0,*7F
1491912477.0,41646,16.69,73292.0,8.09,-16.03,-14.43,0,*7B
1491912478.27,41647,16.69,73292.3,8.07,-16.51,-14.83,0,*7F
1491912479.51,41648,16.69,73294.5,8.07,-16.97,-15.35,0,*76
1491912480.77,41649,16.69,73292.3,8.09,-16.69,-15.01,0,*7F
1491912481.97,41650,16.69,73294.5,8.09,-15.95,-14.29,0,*7C
1491912483.25,41651,16.69,73294.5,8.07,-16.09,-14.47,0,*7D
1491912484.48,41652,16.69,73298.3,8.09,-15.75,-14.01,0,*7A
1491912485.7,41653,16.69,73292.5,8.09,-15.81,-14.19,0,*79
1491912486.91,41654,16.63,73292.8,8.09,-15.75,-14.15,0,*79
1491912488.15,41655,16.69,73294.0,8.11,-15.81,-14.15,0,*7A
1491912489.4,41656,16.69,73294.3,8.11,-15.67,-14.05,0,*70
1491912490.63,41657,16.69,73294.3,8.11,-15.29,-13.55,0,*79
1491912491.85,41658,16.69,73298.5,8.11,-15.75,-14.29,0,*73
1491912493.1,41659,16.69,73296.8,8.15,-16.31,-14.83,0,*75
1491912494.35,41660,16.69,73298.0,8.15,-16.17,-14.75,0,*72
1491912495.62,41661,16.69,73296.3,8.11,-16.65,-15.01,0,*70
1491912496.87,41662,16.69,73298.8,8.11,-15.81,-14.19,0,*72
1491912498.11,41663,16.69,73300.8,8.15,-16.23,-14.75,0,*76
1491912499.35,41664,16.69,73298.8,8.11,-15.21,-13.73,0,*75
1491912500.6,41665,16.69,73296.8,8.11,-15.43,-14.29,0,*78
1491912501.83,41666,16.69,73302.3,8.11,-18.17,-16.79,0,*70
1491912503.03,41667,16.69,73300.0,8.09,-18.45,-16.97,0,*7F